Manning, SC

4:03 AM EST on February 22, 2017 (GMT -0500)
Santee Cooper Regional

Weather History for KMNI - July, 2013

Change the Weather History Date:

Sunday, July 14, 2013

  Actual Average (KCKI) Record (KCKI)
Temperature  
Mean Temperature 81 °F -  
Max Temperature 89 °F 93 °F 95 °F (2014)
Min Temperature 73 °F 68 °F 71 °F (2011)
Cooling Degree Days 16    
Growing Degree Days 31 (Base 50)    
Moisture  
Dew Point 78 °F    
Average Humidity 92    
Maximum Humidity 100    
Minimum Humidity 70    
Precipitation  
Precipitation 0.09 in - - ()
Sea Level Pressure  
Sea Level Pressure 30.17 in    
Wind  
Wind Speed - (North)    
Max Wind Speed -    
Max Gust Speed -    
Visibility 10 miles    
Events      
Averages and records for this station are not official NWS values.
T = Trace of Precipitation, MM = Missing Value Source: NWS Daily Summary

Daily Weather History Graph

Daily Weather History Graph

Search for Another Location

Airport or City:

Trip Planner

Search our weather history database for the weather conditions in past years. The results will help you decide how hot, cold, wet, or windy it might be!

Date:

Astronomy

Jul. 14, 2013 Rise Set
Actual Time 6:21 AM EDT 8:31 PM EDT
Civil Twilight 5:52 AM EDT 9:00 PM EDT
Nautical Twilight 5:18 AM EDT 9:34 PM EDT
Astronomical Twilight 4:40 AM EDT 10:12 PM EDT
Moon 12:15 PM EDT (7/14) No Moon Set
Length of Visible Light 15h 07m
Length of Day
14h 10m
Waxing Crescent, 35% of the Moon is Illuminated
Jul 14
Waxing Crescent
Jul 15
First Quarter
Jul 22
Full
Jul 29
Last Quarter
Aug 6
New

Hourly Weather History & Observations

Time (EDT) Temp. Heat Index Dew Point Humidity Pressure Visibility Wind Dir Wind Speed Gust Speed Precip Events Conditions
12:15 AM 77.0 °F - 77.0 °F 100% 30.10 in 10.0 mi North - - N/A   Scattered Clouds
12:35 AM 77.0 °F - 77.0 °F 100% 30.10 in 10.0 mi North - - N/A   Mostly Cloudy
12:55 AM 77.0 °F - 77.0 °F 100% 30.10 in 10.0 mi North - - N/A   Overcast
1:15 AM 77.0 °F - 77.0 °F 100% 30.10 in 10.0 mi North - - N/A   Scattered Clouds
1:35 AM 77.0 °F - 77.0 °F 100% 30.10 in 10.0 mi North - - N/A   Scattered Clouds
1:55 AM 77.0 °F - 77.0 °F 100% 30.11 in 10.0 mi North - - N/A   Mostly Cloudy
2:15 AM 77.0 °F - 77.0 °F 100% 30.11 in 10.0 mi North - - N/A   Overcast
2:35 AM 77.0 °F - 77.0 °F 100% 30.11 in 10.0 mi North - - N/A   Overcast
2:55 AM 77.0 °F - 77.0 °F 100% 30.11 in 10.0 mi North - - N/A   Overcast
3:15 AM 77.0 °F - 77.0 °F 100% 30.11 in 10.0 mi North - - N/A   Overcast
3:35 AM 75.2 °F - 75.2 °F 100% 30.11 in 10.0 mi North - - N/A   Overcast
3:55 AM 75.2 °F - 75.2 °F 100% 30.10 in 10.0 mi North - - N/A   Mostly Cloudy
4:15 AM 75.2 °F - 75.2 °F 100% 30.11 in 10.0 mi North - - N/A   Clear
4:35 AM 75.2 °F - 75.2 °F 100% 30.13 in 10.0 mi North - - N/A   Scattered Clouds
4:55 AM 73.4 °F - 73.4 °F 100% 30.13 in 4.0 mi North - - 0.08 in   Mostly Cloudy
5:15 AM 73.4 °F - 73.4 °F 100% 30.13 in 10.0 mi North - - N/A   Mostly Cloudy
5:35 AM 75.2 °F - 75.2 °F 100% 30.14 in 10.0 mi North - - N/A   Mostly Cloudy
5:55 AM 75.2 °F - 75.2 °F 100% 30.14 in 10.0 mi North - - N/A   Mostly Cloudy
6:15 AM 73.4 °F - 73.4 °F 100% 30.14 in 10.0 mi North - - N/A   Mostly Cloudy
6:35 AM 73.4 °F - 73.4 °F 100% 30.15 in 10.0 mi North - - N/A   Mostly Cloudy
6:55 AM 73.4 °F - 73.4 °F 100% 30.16 in 10.0 mi North - - N/A   Mostly Cloudy
7:15 AM 73.4 °F - 73.4 °F 100% 30.16 in 10.0 mi North - - N/A   Mostly Cloudy
7:35 AM 73.4 °F - 73.4 °F 100% 30.16 in 10.0 mi North - - N/A   Overcast
7:55 AM 73.4 °F - 73.4 °F 100% 30.17 in 10.0 mi North - - N/A   Overcast
8:15 AM 75.2 °F - 75.2 °F 100% 30.17 in 10.0 mi North - - N/A   Mostly Cloudy
8:35 AM 77.0 °F - 77.0 °F 100% 30.17 in 10.0 mi North - - N/A   Scattered Clouds
8:55 AM 78.8 °F - 78.8 °F 100% 30.18 in 10.0 mi North - - N/A   Scattered Clouds
9:15 AM 80.6 °F 89.3 °F 80.6 °F 100% 30.18 in 10.0 mi North - - N/A   Clear
9:35 AM 82.4 °F 96.1 °F 82.4 °F 100% 30.18 in 10.0 mi North - - N/A   Scattered Clouds
9:55 AM 82.4 °F 96.1 °F 82.4 °F 100% 30.18 in 10.0 mi North - - N/A   Mostly Cloudy
10:15 AM 82.4 °F 96.1 °F 82.4 °F 100% 30.19 in 10.0 mi North - - N/A   Mostly Cloudy
10:35 AM 84.2 °F 100.6 °F 82.4 °F 94% 30.19 in 10.0 mi North - - N/A   Mostly Cloudy
10:55 AM 86.0 °F 101.9 °F 80.6 °F 84% 30.19 in 10.0 mi North - - N/A   Mostly Cloudy
11:15 AM 86.0 °F 101.9 °F 80.6 °F 84% 30.19 in 10.0 mi North - - N/A   Mostly Cloudy
11:35 AM 86.0 °F 101.9 °F 80.6 °F 84% 30.20 in 10.0 mi North - - N/A   Scattered Clouds
11:55 AM 86.0 °F 101.9 °F 80.6 °F 84% 30.20 in 10.0 mi North - - N/A   Scattered Clouds
12:15 PM 87.8 °F 104.9 °F 80.6 °F 79% 30.21 in 10.0 mi North - - N/A   Scattered Clouds
12:35 PM 87.8 °F 104.9 °F 80.6 °F 79% 30.21 in 10.0 mi North - - N/A   Scattered Clouds
12:55 PM 86.0 °F 104.7 °F 82.4 °F 89% 30.21 in 10.0 mi North - - N/A   Clear
1:15 PM 87.8 °F 108.2 °F 82.4 °F 84% 30.21 in 10.0 mi North - - N/A   Scattered Clouds
1:35 PM 86.0 °F 101.9 °F 80.6 °F 84% 30.21 in 10.0 mi North - - N/A   Mostly Cloudy
1:55 PM 86.0 °F 101.9 °F 80.6 °F 84% 30.21 in 10.0 mi North - - N/A   Scattered Clouds
2:15 PM 77.0 °F - 77.0 °F 100% 30.21 in 10.0 mi North - - 0.01 in   Scattered Clouds
2:35 PM 82.4 °F 92.4 °F 78.8 °F 89% 30.21 in 10.0 mi North - - 0.01 in   Clear
2:55 PM 87.8 °F 104.9 °F 80.6 °F 79% 30.20 in 10.0 mi North - - 0.01 in   Clear
3:15 PM 87.8 °F 104.9 °F 80.6 °F 79% 30.19 in 10.0 mi North - - N/A   Mostly Cloudy
3:35 PM 89.6 °F 104.7 °F 78.8 °F 70% 30.19 in 10.0 mi North - - N/A   Scattered Clouds
3:55 PM 89.6 °F 108.2 °F 80.6 °F 75% 30.18 in 10.0 mi North - - N/A   Mostly Cloudy
4:15 PM 87.8 °F 104.9 °F 80.6 °F 79% 30.18 in 10.0 mi North - - N/A   Scattered Clouds
4:35 PM 89.6 °F 104.7 °F 78.8 °F 70% 30.18 in 10.0 mi North - - N/A   Clear
4:55 PM 87.8 °F 102.5 °F 78.8 °F 75% 30.18 in 10.0 mi North - - N/A   Clear
5:15 PM 87.8 °F 102.5 °F 78.8 °F 75% 30.17 in 10.0 mi North - - N/A   Scattered Clouds
5:35 PM 87.8 °F 102.5 °F 78.8 °F 75% 30.18 in 10.0 mi North - - N/A   Scattered Clouds
5:55 PM 87.8 °F 102.5 °F 78.8 °F 75% 30.18 in 10.0 mi North - - N/A   Scattered Clouds
6:15 PM 86.0 °F 99.3 °F 78.8 °F 79% 30.18 in 10.0 mi North - - N/A   Clear
6:35 PM 87.8 °F 99.7 °F 77.0 °F 70% 30.18 in 10.0 mi North - - N/A   Clear
6:55 PM 86.0 °F 96.9 °F 77.0 °F 74% 30.18 in 10.0 mi North - - N/A   Clear
7:15 PM 86.0 °F 99.3 °F 78.8 °F 79% 30.18 in 10.0 mi North - - N/A   Clear
7:35 PM 84.2 °F 96.1 °F 78.8 °F 84% 30.19 in 10.0 mi North - - N/A   Clear
7:55 PM 82.4 °F 90.9 °F 77.0 °F 84% 30.19 in 10.0 mi North - - N/A   Clear
8:15 PM 80.6 °F 88.1 °F 78.8 °F 94% 30.20 in 10.0 mi North - - N/A   Clear
8:35 PM 80.6 °F 88.1 °F 78.8 °F 94% 30.21 in 10.0 mi North - - N/A   Clear
8:55 PM 78.8 °F - 78.8 °F 100% 30.21 in 10.0 mi North - - N/A   Scattered Clouds
9:15 PM 78.8 °F - 78.8 °F 100% 30.22 in 10.0 mi North - - N/A   Clear
9:35 PM 78.8 °F - 78.8 °F 100% 30.23 in 7.0 mi North - - N/A   Clear
9:55 PM 77.0 °F - 77.0 °F 100% 30.23 in 10.0 mi North - - N/A   Clear
10:15 PM 77.0 °F - 77.0 °F 100% 30.24 in 10.0 mi North - - N/A   Clear
10:35 PM 77.0 °F - 77.0 °F 100% 30.24 in 7.0 mi North - - N/A   Clear
10:55 PM 77.0 °F - 77.0 °F 100% 30.25 in 7.0 mi North - - N/A   Clear
11:15 PM 77.0 °F - 77.0 °F 100% 30.24 in 7.0 mi North - - N/A   Clear
11:35 PM 77.0 °F - 77.0 °F 100% 30.24 in 10.0 mi North - - N/A   Clear
11:55 PM 77.0 °F - 77.0 °F 100% 30.24 in 10.0 mi North - - N/A   Clear